When you browse on this site, cookies collect data to enhance your experience and personalize the content and advertising you see.
Visit our Privacy Policy to learn more. By continuing to use the site, you agree to this use of cookies and data.
  • In Germany
  • List of Countries
  • For 7 days
  • Water Temperature
  • Weather Map
  • Weather Widgets
  • user-avatar
    Login

    Hourly Weather Baraki Barak

    Today, 23 September, Monday

    Time Temperature Precipitation Wind Pressure Humidity
    00:00 +15°C° 0 mm 0 mps 600 mmHg 34%
    01:00 +15°C° 0 mm 0 mps 600 mmHg 36%
    02:00 +14°C° 0 mm 0 mps 599 mmHg 39%
    03:00 +14°C° 0 mm 0 mps 599 mmHg 40%
    04:00 +13°C° 0 mm 0 mps 599 mmHg 42%
    05:00 +13°C° 0 mm 0 mps 599 mmHg 43%
    06:00 +16°C° 0 mm 1 mps 601 mmHg 37%
    07:00 +19°C° 0 mm 1 mps 602 mmHg 31%
    08:00 +21°C° 0 mm 1 mps 603 mmHg 24%
    09:00 +23°C° 0 mm 1 mps 604 mmHg 20%
    10:00 +24°C° 0 mm 1 mps 604 mmHg 17%
    11:00 +26°C° 0 mm 1 mps 604 mmHg 13%
    12:00 +27°C° 0 mm 1 mps 604 mmHg 11%
    13:00 +29°C° 0 mm 1 mps 604 mmHg 10%
    14:00 +30°C° 0 mm 1 mps 604 mmHg 8%
    15:00 +30°C° 0 mm 1 mps 604 mmHg 8%
    16:00 +30°C° 0 mm 2 mps 603 mmHg 8%
    17:00 +30°C° 0 mm 2 mps 603 mmHg 7%
    18:00 +27°C° 0 mm 1 mps 602 mmHg 10%
    19:00 +24°C° 0 mm 1 mps 601 mmHg 13%
    20:00 +20°C° 0 mm 1 mps 601 mmHg 16%
    21:00 +20°C° 0 mm 1 mps 600 mmHg 20%
    22:00 +17°C° 0 mm 0 mps 600 mmHg 23%
    23:00 +16°C° 0 mm 0 mps 600 mmHg 26%

    Tomorrow, 24 September, Tuesday

    Time Temperature Precipitation Wind Pressure Humidity
    00:00 +15°C° 0 mm 0 mps 600 mmHg 30%
    01:00 +15°C° 0 mm 0 mps 599 mmHg 33%
    02:00 +14°C° 0 mm 0 mps 599 mmHg 37%
    03:00 +14°C° 0 mm 0 mps 599 mmHg 40%
    04:00 +13°C° 0 mm 0 mps 599 mmHg 43%
    05:00 +13°C° 0 mm 0 mps 598 mmHg 46%
    06:00 +15°C° 0 mm 0 mps 600 mmHg 40%
    07:00 +18°C° 0 mm 0 mps 602 mmHg 34%
    08:00 +20°C° 0 mm 0 mps 603 mmHg 28%
    09:00 +22°C° 0 mm 0 mps 604 mmHg 25%
    10:00 +25°C° 0 mm 1 mps 604 mmHg 22%
    11:00 +27°C° 0 mm 1 mps 604 mmHg 19%
    12:00 +28°C° 0 mm 1 mps 604 mmHg 17%
    13:00 +29°C° 0 mm 1 mps 604 mmHg 14%
    14:00 +31°C° 0 mm 1 mps 604 mmHg 12%
    15:00 +31°C° 0 mm 2 mps 604 mmHg 12%
    16:00 +31°C° 0 mm 2 mps 604 mmHg 11%
    17:00 +31°C° 0 mm 2 mps 603 mmHg 11%
    18:00 +28°C° 0 mm 2 mps 603 mmHg 17%
    19:00 +25°C° 0 mm 1 mps 602 mmHg 24%
    20:00 +21°C° 0 mm 1 mps 601 mmHg 30%
    21:00 +21°C° 0 mm 1 mps 601 mmHg 35%
    22:00 +20°C° 0 mm 1 mps 601 mmHg 40%
    23:00 +17°C° 0 mm 0 mps 601 mmHg 45%

    Day after tomorrow, 25 September, Wednesday

    Time Temperature Precipitation Wind Pressure Humidity
    00:00 +16°C° 0 mm 0 mps 600 mmHg 47%
    01:00 +16°C° 0 mm 0 mps 600 mmHg 50%
    02:00 +15°C° 0 mm 0 mps 600 mmHg 53%
    03:00 +15°C° 0 mm 0 mps 600 mmHg 54%
    04:00 +14°C° 0 mm 0 mps 600 mmHg 56%
    05:00 +14°C° 0 mm 0 mps 600 mmHg 58%
    06:00 +16°C° 0 mm 0 mps 601 mmHg 50%
    07:00 +18°C° 0 mm 0 mps 602 mmHg 43%
    08:00 +20°C° 0 mm 0 mps 604 mmHg 35%
    09:00 +24°C° 0 mm 1 mps 604 mmHg 32%
    10:00 +26°C° 0 mm 1 mps 605 mmHg 29%
    11:00 +27°C° 0 mm 1 mps 605 mmHg 25%
    12:00 +28°C° 0 mm 1 mps 605 mmHg 22%
    13:00 +29°C° 0 mm 1 mps 605 mmHg 20%
    14:00 +31°C° 0 mm 2 mps 605 mmHg 17%
    15:00 +31°C° 0 mm 2 mps 605 mmHg 16%
    16:00 +31°C° 0 mm 2 mps 605 mmHg 16%
    17:00 +31°C° 0 mm 2 mps 605 mmHg 15%
    18:00 +28°C° 0 mm 2 mps 604 mmHg 23%
    19:00 +25°C° 0 mm 2 mps 603 mmHg 30%
    20:00 +21°C° 0 mm 2 mps 602 mmHg 37%
    21:00 +21°C° 0 mm 1 mps 602 mmHg 44%
    22:00 +20°C° 0 mm 1 mps 602 mmHg 50%
    23:00 +19°C° 0 mm 1 mps 602 mmHg 57%

    26 September, Thursday

    Time Temperature Precipitation Wind Pressure Humidity
    00:00 +17°C° 0 mm 0 mps 602 mmHg 59%
    01:00 +16°C° 0 mm 0 mps 601 mmHg 61%
    02:00 +16°C° 0 mm 0 mps 601 mmHg 64%
    03:00 +16°C° 0 mm 0 mps 601 mmHg 66%
    04:00 +15°C° 0 mm 0 mps 601 mmHg 67%
    05:00 +15°C° 0 mm 0 mps 601 mmHg 69%
    06:00 +17°C° 0 mm 0 mps 602 mmHg 61%
    07:00 +19°C° 0 mm 0 mps 603 mmHg 53%
    08:00 +21°C° 0 mm 0 mps 605 mmHg 44%
    09:00 +22°C° 0 mm 0 mps 605 mmHg 39%
    10:00 +26°C° 0 mm 1 mps 606 mmHg 34%
    11:00 +28°C° 0 mm 1 mps 606 mmHg 29%
    12:00 +29°C° 0 mm 1 mps 606 mmHg 24%
    13:00 +30°C° 0 mm 2 mps 606 mmHg 20%
    14:00 +31°C° 0 mm 2 mps 606 mmHg 15%
    15:00 +31°C° 0 mm 2 mps 605 mmHg 15%
    16:00 +31°C° 0 mm 2 mps 605 mmHg 15%
    17:00 +31°C° 0 mm 3 mps 604 mmHg 14%
    18:00 +28°C° 0 mm 2 mps 604 mmHg 20%
    19:00 +25°C° 0 mm 2 mps 603 mmHg 27%
    20:00 +22°C° 0 mm 1 mps 602 mmHg 33%
    21:00 +22°C° 0 mm 1 mps 602 mmHg 38%
    22:00 +21°C° 0 mm 1 mps 602 mmHg 43%
    23:00 +20°C° 0 mm 1 mps 602 mmHg 47%

    27 September, Friday

    Time Temperature Precipitation Wind Pressure Humidity
    00:00 +19°C° 0 mm 1 mps 601 mmHg 51%
    01:00 +17°C° 0 mm 0 mps 601 mmHg 55%
    02:00 +16°C° 0 mm 0 mps 601 mmHg 58%
    03:00 +16°C° 0 mm 0 mps 601 mmHg 61%
    04:00 +15°C° 0 mm 0 mps 600 mmHg 63%
    05:00 +14°C° 0 mm 0 mps 600 mmHg 66%
    06:00 +16°C° 0 mm 0 mps 601 mmHg 57%
    07:00 +18°C° 0 mm 0 mps 602 mmHg 49%
    08:00 +20°C° 0 mm 0 mps 604 mmHg 40%
    09:00 +22°C° 0 mm 0 mps 604 mmHg 34%
    10:00 +26°C° 0 mm 1 mps 604 mmHg 29%
    11:00 +28°C° 0 mm 1 mps 605 mmHg 23%
    12:00 +29°C° 0 mm 1 mps 605 mmHg 18%
    13:00 +30°C° 0 mm 2 mps 604 mmHg 14%
    14:00 +31°C° 0 mm 2 mps 604 mmHg 10%
    15:00 +31°C° 0 mm 3 mps 604 mmHg 9%
    16:00 +31°C° 0 mm 3 mps 604 mmHg 9%
    17:00 +31°C° 0 mm 3 mps 603 mmHg 9%
    18:00 +28°C° 0 mm 3 mps 603 mmHg 10%
    19:00 +25°C° 0 mm 3 mps 602 mmHg 12%
    20:00 +21°C° 0 mm 2 mps 601 mmHg 14%
    21:00 +20°C° 0 mm 2 mps 601 mmHg 16%
    22:00 +20°C° 0 mm 1 mps 601 mmHg 17%
    23:00 +19°C° 0 mm 1 mps 600 mmHg 19%

    28 September, Saturday

    Time Temperature Precipitation Wind Pressure Humidity
    00:00 +18°C° 0 mm 1 mps 600 mmHg 20%
    01:00 +16°C° 0 mm 1 mps 599 mmHg 20%
    02:00 +16°C° 0 mm 1 mps 599 mmHg 21%
    03:00 +15°C° 0 mm 1 mps 598 mmHg 22%
    04:00 +14°C° 0 mm 1 mps 598 mmHg 23%
    05:00 +14°C° 0 mm 1 mps 598 mmHg 24%
    06:00 +16°C° 0 mm 1 mps 599 mmHg 22%
    07:00 +19°C° 0 mm 1 mps 600 mmHg 19%
    08:00 +21°C° 0 mm 1 mps 601 mmHg 17%
    09:00 +23°C° 0 mm 1 mps 601 mmHg 15%
    10:00 +25°C° 0 mm 1 mps 602 mmHg 13%
    11:00 +27°C° 0 mm 1 mps 602 mmHg 11%
    12:00 +28°C° 0 mm 1 mps 602 mmHg 10%
    13:00 +29°C° 0 mm 1 mps 602 mmHg 8%
    14:00 +30°C° 0 mm 2 mps 601 mmHg 7%
    15:00 +30°C° 0 mm 2 mps 601 mmHg 7%
    16:00 +30°C° 0 mm 2 mps 601 mmHg 7%
    17:00 +30°C° 0 mm 2 mps 601 mmHg 7%
    18:00 +27°C° 0 mm 2 mps 600 mmHg 11%
    19:00 +24°C° 0 mm 2 mps 600 mmHg 15%
    20:00 +20°C° 0 mm 2 mps 599 mmHg 19%
    21:00 +19°C° 0 mm 2 mps 599 mmHg 25%
    22:00 +19°C° 0 mm 1 mps 599 mmHg 32%
    23:00 +18°C° 0 mm 1 mps 599 mmHg 38%
    Show more